Time,TemperatureF,DewpointF,PressureIn,WindDirection,WindDirectionDegrees,WindSpeedMPH,WindSpeedGustMPH,Humidity,HourlyPrecipIn,Conditions,Clouds,dailyrainin,SoftwareType,DateUTC
2017-06-29 00:02:00,55.2,50.5,30.06,WSW,243,2.0,5.0,84,0.00,,---,0.00,VWS V15.00,2017-06-29 07:02:00,
2017-06-29 00:07:00,55.1,50.4,30.06,SW,235,0.0,6.0,84,0.00,,---,0.00,VWS V15.00,2017-06-29 07:07:00,
2017-06-29 00:12:00,55.1,50.4,30.06,SW,234,0.0,6.0,84,0.00,,---,0.00,VWS V15.00,2017-06-29 07:12:00,
2017-06-29 00:17:00,55.0,50.3,30.06,WNW,303,1.0,7.0,84,0.00,,---,0.00,VWS V15.00,2017-06-29 07:17:00,
2017-06-29 00:22:00,54.9,50.2,30.06,SW,235,0.0,7.0,84,0.00,,---,0.00,VWS V15.00,2017-06-29 07:22:00,
2017-06-29 00:27:00,54.8,50.1,30.06,SW,231,0.0,7.0,84,0.00,,---,0.00,VWS V15.00,2017-06-29 07:27:00,
2017-06-29 00:32:00,54.7,50.3,30.06,SW,221,0.0,0.0,85,0.00,,---,0.00,VWS V15.00,2017-06-29 07:32:00,
2017-06-29 00:37:00,54.6,49.9,30.06,SW,221,0.0,1.0,84,0.00,,---,0.00,VWS V15.00,2017-06-29 07:37:00,
2017-06-29 00:42:00,54.5,50.1,30.06,SW,229,5.0,5.0,85,0.00,,---,0.00,VWS V15.00,2017-06-29 07:42:00,
2017-06-29 00:47:00,54.4,50.0,30.06,SW,234,0.0,6.0,85,0.00,,---,0.00,VWS V15.00,2017-06-29 07:47:00,
2017-06-29 00:52:00,54.3,49.9,30.06,SW,231,0.0,8.0,85,0.00,,---,0.00,VWS V15.00,2017-06-29 07:52:00,
2017-06-29 00:57:00,54.2,49.8,30.06,SW,223,0.0,8.0,85,0.00,,---,0.00,VWS V15.00,2017-06-29 07:57:00,
2017-06-29 01:02:00,54.1,49.7,30.06,South,178,0.0,2.0,85,0.00,,---,0.00,VWS V15.00,2017-06-29 08:02:00,
2017-06-29 01:07:00,54.0,49.9,30.06,SW,227,0.0,6.0,86,0.00,,---,0.00,VWS V15.00,2017-06-29 08:07:00,
2017-06-29 01:12:00,54.0,49.9,30.06,SW,235,0.0,6.0,86,0.00,,---,0.00,VWS V15.00,2017-06-29 08:12:00,
2017-06-29 01:17:00,53.9,49.8,30.06,SW,227,0.0,6.0,86,0.00,,---,0.00,VWS V15.00,2017-06-29 08:17:00,
2017-06-29 01:22:00,53.8,49.7,30.06,SW,230,0.0,6.0,86,0.00,,---,0.00,VWS V15.00,2017-06-29 08:22:00,
2017-06-29 01:27:00,53.7,49.6,30.06,SW,228,4.0,6.0,86,0.00,,---,0.00,VWS V15.00,2017-06-29 08:27:00,
2017-06-29 01:32:00,53.6,49.5,30.06,SSW,205,0.0,3.0,86,0.00,,---,0.00,VWS V15.00,2017-06-29 08:32:00,
2017-06-29 01:37:00,53.6,49.5,30.06,West,264,6.0,6.0,86,0.00,,---,0.00,VWS V15.00,2017-06-29 08:37:00,
2017-06-29 01:42:00,53.5,49.7,30.06,SW,230,0.0,6.0,87,0.00,,---,0.00,VWS V15.00,2017-06-29 08:42:00,
2017-06-29 01:47:00,53.4,49.6,30.06,WSW,239,0.0,6.0,87,0.00,,---,0.00,VWS V15.00,2017-06-29 08:47:00,
2017-06-29 01:52:00,53.3,49.5,30.06,SW,214,0.0,6.0,87,0.00,,---,0.00,VWS V15.00,2017-06-29 08:52:00,
2017-06-29 01:57:00,53.3,49.5,30.06,SW,214,0.0,6.0,87,0.00,,---,0.00,VWS V15.00,2017-06-29 08:57:00,
2017-06-29 02:02:00,53.2,49.4,30.06,SSW,213,0.0,0.0,87,0.00,,---,0.00,VWS V15.00,2017-06-29 09:02:00,
2017-06-29 02:07:00,53.2,49.4,30.06,WSW,237,2.0,4.0,87,0.00,,---,0.00,VWS V15.00,2017-06-29 09:07:00,
2017-06-29 02:12:00,53.1,49.7,30.07,SW,231,0.0,4.0,88,0.00,,---,0.00,VWS V15.00,2017-06-29 09:12:00,
2017-06-29 02:17:00,53.0,49.5,30.07,SW,230,0.0,4.0,88,0.00,,---,0.00,VWS V15.00,2017-06-29 09:17:00,
2017-06-29 02:22:00,52.9,49.5,30.07,SW,229,0.0,4.0,88,0.00,,---,0.00,VWS V15.00,2017-06-29 09:22:00,
2017-06-29 02:27:00,52.8,49.3,30.07,SW,229,0.0,4.0,88,0.00,,---,0.00,VWS V15.00,2017-06-29 09:27:00,
2017-06-29 02:32:00,52.8,49.3,30.07,SW,224,0.0,4.0,88,0.00,,---,0.00,VWS V15.00,2017-06-29 09:32:00,
2017-06-29 02:37:00,52.7,49.2,30.07,WSW,237,0.0,4.0,88,0.00,,---,0.00,VWS V15.00,2017-06-29 09:37:00,
2017-06-29 02:42:00,52.7,49.2,30.07,WSW,239,0.0,4.0,88,0.00,,---,0.00,VWS V15.00,2017-06-29 09:42:00,
2017-06-29 02:47:00,52.6,49.2,30.08,West,259,0.0,4.0,88,0.00,,---,0.00,VWS V15.00,2017-06-29 09:47:00,
2017-06-29 02:52:00,52.6,49.2,30.08,West,271,0.0,4.0,88,0.00,,---,0.00,VWS V15.00,2017-06-29 09:52:00,
2017-06-29 02:57:00,52.5,49.4,30.08,West,268,0.0,4.0,89,0.00,,---,0.00,VWS V15.00,2017-06-29 09:57:00,
2017-06-29 03:02:00,52.5,49.4,30.08,West,268,0.0,0.0,89,0.00,,---,0.00,VWS V15.00,2017-06-29 10:02:00,
2017-06-29 03:07:00,52.4,49.3,30.08,West,267,0.0,1.0,89,0.00,,---,0.00,VWS V15.00,2017-06-29 10:07:00,
2017-06-29 03:12:00,52.4,49.3,30.08,West,267,0.0,1.0,89,0.00,,---,0.00,VWS V15.00,2017-06-29 10:12:00,
2017-06-29 03:17:00,52.3,49.2,30.08,SW,230,4.0,4.0,89,0.00,,---,0.00,VWS V15.00,2017-06-29 10:17:00,
2017-06-29 03:22:00,52.3,49.2,30.08,SW,232,0.0,4.0,89,0.00,,---,0.00,VWS V15.00,2017-06-29 10:22:00,
2017-06-29 03:27:00,52.2,49.1,30.08,SW,233,0.0,4.0,89,0.00,,---,0.00,VWS V15.00,2017-06-29 10:27:00,
2017-06-29 03:32:00,52.1,49.0,30.08,SW,214,0.0,1.0,89,0.00,,---,0.00,VWS V15.00,2017-06-29 10:32:00,
2017-06-29 03:37:00,52.1,49.0,30.08,SW,217,0.0,1.0,89,0.00,,---,0.00,VWS V15.00,2017-06-29 10:37:00,
2017-06-29 03:42:00,52.1,49.0,30.08,SW,216,0.0,1.0,89,0.00,,---,0.00,VWS V15.00,2017-06-29 10:42:00,
2017-06-29 03:47:00,52.0,48.9,30.08,SW,214,0.0,4.0,89,0.00,,---,0.00,VWS V15.00,2017-06-29 10:47:00,
2017-06-29 03:52:00,52.0,48.9,30.08,SSW,213,0.0,4.0,89,0.00,,---,0.00,VWS V15.00,2017-06-29 10:52:00,
2017-06-29 03:57:00,52.0,48.9,30.08,SSW,209,0.0,4.0,89,0.00,,---,0.00,VWS V15.00,2017-06-29 10:57:00,
2017-06-29 04:02:00,51.9,48.8,30.08,ESE,106,0.0,0.0,89,0.00,,---,0.00,VWS V15.00,2017-06-29 11:02:00,
2017-06-29 04:07:00,52.0,49.2,30.09,SE,143,0.0,1.0,90,0.00,,---,0.00,VWS V15.00,2017-06-29 11:07:00,
2017-06-29 04:12:00,52.0,49.2,30.09,SSE,154,0.0,1.0,90,0.00,,---,0.00,VWS V15.00,2017-06-29 11:12:00,
2017-06-29 04:17:00,52.0,48.9,30.09,SSE,152,0.0,1.0,89,0.00,,---,0.00,VWS V15.00,2017-06-29 11:17:00,
2017-06-29 04:22:00,51.9,49.1,30.09,SSE,155,0.0,1.0,90,0.00,,---,0.00,VWS V15.00,2017-06-29 11:22:00,
2017-06-29 04:27:00,51.9,49.1,30.09,SSE,156,0.0,1.0,90,0.00,,---,0.00,VWS V15.00,2017-06-29 11:27:00,
2017-06-29 04:32:00,51.8,49.0,30.09,SSE,155,0.0,1.0,90,0.00,,---,0.00,VWS V15.00,2017-06-29 11:32:00,
2017-06-29 04:37:00,51.8,49.0,30.09,SSE,153,0.0,1.0,90,0.00,,---,0.00,VWS V15.00,2017-06-29 11:37:00,
2017-06-29 04:42:00,51.8,49.0,30.10,South,169,0.0,1.0,90,0.00,,---,0.00,VWS V15.00,2017-06-29 11:42:00,
2017-06-29 04:47:00,51.8,49.0,30.10,South,169,0.0,1.0,90,0.00,,---,0.00,VWS V15.00,2017-06-29 11:47:00,
2017-06-29 04:52:00,51.7,48.9,30.10,South,169,0.0,1.0,90,0.00,,---,0.00,VWS V15.00,2017-06-29 11:52:00,
2017-06-29 04:57:00,51.7,48.9,30.10,South,169,0.0,1.0,90,0.00,,---,0.00,VWS V15.00,2017-06-29 11:57:00,
2017-06-29 05:02:00,51.6,48.8,30.10,South,172,0.0,0.0,90,0.00,,---,0.00,VWS V15.00,2017-06-29 12:02:00,
2017-06-29 05:07:00,51.6,48.8,30.10,South,184,0.0,3.0,90,0.00,,---,0.00,VWS V15.00,2017-06-29 12:07:00,
2017-06-29 05:12:00,51.6,48.8,30.10,South,185,0.0,3.0,90,0.00,,---,0.00,VWS V15.00,2017-06-29 12:12:00,
2017-06-29 05:17:00,51.6,48.8,30.11,South,185,0.0,3.0,90,0.00,,---,0.00,VWS V15.00,2017-06-29 12:17:00,
2017-06-29 05:22:00,51.5,48.7,30.11,South,185,0.0,3.0,90,0.00,,---,0.00,VWS V15.00,2017-06-29 12:22:00,
2017-06-29 05:23:00,51.5,48.7,30.11,South,184,0.0,3.0,90,0.00,,---,0.00,VWS V15.00,2017-06-29 12:23:00,
2017-06-29 05:28:00,51.5,48.7,30.11,South,184,0.0,3.0,90,0.00,,---,0.00,VWS V15.00,2017-06-29 12:28:00,
2017-06-29 05:33:00,51.4,48.6,30.11,South,184,0.0,0.0,90,0.00,,---,0.00,VWS V15.00,2017-06-29 12:33:00,
2017-06-29 05:38:00,51.5,48.7,30.11,South,185,0.0,0.0,90,0.00,,---,0.00,VWS V15.00,2017-06-29 12:38:00,
2017-06-29 05:43:00,51.4,48.6,30.11,South,184,0.0,0.0,90,0.00,,---,0.00,VWS V15.00,2017-06-29 12:43:00,
2017-06-29 05:48:00,51.4,48.9,30.12,South,184,0.0,0.0,91,0.00,,---,0.00,VWS V15.00,2017-06-29 12:48:00,
2017-06-29 05:53:00,51.4,48.9,30.11,South,184,0.0,0.0,91,0.00,,---,0.00,VWS V15.00,2017-06-29 12:53:00,
2017-06-29 05:58:00,51.4,48.9,30.11,South,184,0.0,0.0,91,0.00,,---,0.00,VWS V15.00,2017-06-29 12:58:00,
2017-06-29 06:03:00,51.3,48.8,30.11,South,184,0.0,0.0,91,0.00,,---,0.00,VWS V15.00,2017-06-29 13:03:00,
2017-06-29 06:08:00,51.3,48.8,30.12,South,184,0.0,0.0,91,0.00,,---,0.00,VWS V15.00,2017-06-29 13:08:00,
2017-06-29 06:13:00,51.3,48.8,30.12,South,184,0.0,0.0,91,0.00,,---,0.00,VWS V15.00,2017-06-29 13:13:00,
2017-06-29 06:18:00,51.3,48.8,30.12,South,184,0.0,0.0,91,0.00,,---,0.00,VWS V15.00,2017-06-29 13:18:00,
2017-06-29 06:23:00,51.3,48.8,30.12,South,184,0.0,0.0,91,0.00,,---,0.00,VWS V15.00,2017-06-29 13:23:00,
2017-06-29 06:28:00,51.3,48.8,30.12,South,184,0.0,0.0,91,0.00,,---,0.00,VWS V15.00,2017-06-29 13:28:00,
2017-06-29 06:33:00,51.4,48.9,30.12,South,184,0.0,0.0,91,0.00,,---,0.00,VWS V15.00,2017-06-29 13:33:00,
2017-06-29 06:38:00,51.4,48.9,30.12,South,184,0.0,0.0,91,0.00,,---,0.00,VWS V15.00,2017-06-29 13:38:00,
2017-06-29 06:43:00,51.4,48.9,30.12,South,184,0.0,0.0,91,0.00,,---,0.00,VWS V15.00,2017-06-29 13:43:00,
2017-06-29 06:48:00,51.5,49.0,30.12,South,184,0.0,0.0,91,0.00,,---,0.00,VWS V15.00,2017-06-29 13:48:00,
2017-06-29 06:53:00,51.6,49.1,30.12,South,184,0.0,0.0,91,0.00,,---,0.00,VWS V15.00,2017-06-29 13:53:00,
2017-06-29 06:58:00,51.7,49.2,30.12,South,184,0.0,0.0,91,0.00,,---,0.00,VWS V15.00,2017-06-29 13:58:00,
2017-06-29 07:03:00,51.9,49.4,30.12,South,184,0.0,0.0,91,0.00,,---,0.00,VWS V15.00,2017-06-29 14:03:00,
2017-06-29 07:08:00,52.0,49.5,30.12,South,184,0.0,0.0,91,0.00,,---,0.00,VWS V15.00,2017-06-29 14:08:00,
2017-06-29 07:13:00,52.1,49.6,30.12,South,184,0.0,0.0,91,0.00,,---,0.00,VWS V15.00,2017-06-29 14:13:00,
2017-06-29 07:18:00,52.3,49.8,30.13,South,184,0.0,0.0,91,0.00,,---,0.00,VWS V15.00,2017-06-29 14:18:00,
2017-06-29 07:23:00,52.4,49.8,30.13,South,184,0.0,0.0,91,0.00,,---,0.00,VWS V15.00,2017-06-29 14:23:00,
2017-06-29 07:28:00,52.7,50.5,30.12,South,184,0.0,0.0,92,0.00,,---,0.00,VWS V15.00,2017-06-29 14:28:00,
2017-06-29 07:33:00,53.0,50.7,30.13,South,184,0.0,0.0,92,0.00,,---,0.00,VWS V15.00,2017-06-29 14:33:00,
2017-06-29 07:38:00,53.5,51.2,30.13,South,184,0.0,0.0,92,0.00,,---,0.00,VWS V15.00,2017-06-29 14:38:00,
2017-06-29 07:43:00,53.9,51.3,30.13,South,184,0.0,0.0,91,0.00,,---,0.00,VWS V15.00,2017-06-29 14:43:00,
2017-06-29 07:44:00,54.0,51.4,30.13,South,185,0.0,0.0,91,0.00,,---,0.00,VWS V15.00,2017-06-29 14:44:00,
2017-06-29 07:48:00,54.3,51.7,30.13,South,185,0.0,0.0,91,0.00,,---,0.00,VWS V15.00,2017-06-29 14:48:00,
2017-06-29 07:53:00,54.7,52.1,30.13,South,185,0.0,0.0,91,0.00,,---,0.00,VWS V15.00,2017-06-29 14:53:00,
2017-06-29 07:58:00,55.1,52.5,30.13,South,185,0.0,0.0,91,0.00,,---,0.00,VWS V15.00,2017-06-29 14:58:00,
2017-06-29 08:03:00,55.7,53.1,30.13,South,185,0.0,0.0,91,0.00,,---,0.00,VWS V15.00,2017-06-29 15:03:00,
2017-06-29 08:08:00,56.4,53.8,30.13,South,185,0.0,0.0,91,0.00,,---,0.00,VWS V15.00,2017-06-29 15:08:00,
2017-06-29 08:13:00,57.3,54.4,30.13,South,184,0.0,0.0,90,0.00,,---,0.00,VWS V15.00,2017-06-29 15:13:00,
2017-06-29 08:18:00,58.5,55.3,30.13,South,169,0.0,0.0,89,0.00,,---,0.00,VWS V15.00,2017-06-29 15:18:00,
2017-06-29 08:23:00,59.5,55.6,30.13,South,169,0.0,0.0,87,0.00,,---,0.00,VWS V15.00,2017-06-29 15:23:00,
2017-06-29 08:28:00,60.2,55.7,30.13,South,169,0.0,1.0,85,0.00,,---,0.00,VWS V15.00,2017-06-29 15:28:00,
2017-06-29 08:33:00,60.8,55.6,30.14,SSE,162,0.0,1.0,83,0.00,,---,0.00,VWS V15.00,2017-06-29 15:33:00,
2017-06-29 08:38:00,61.3,55.8,30.13,SE,129,0.0,2.0,82,0.00,,---,0.00,VWS V15.00,2017-06-29 15:38:00,
2017-06-29 08:43:00,61.6,55.7,30.14,SE,129,0.0,2.0,81,0.00,,---,0.00,VWS V15.00,2017-06-29 15:43:00,
2017-06-29 08:48:00,62.0,55.8,30.14,SE,129,0.0,2.0,80,0.00,,---,0.00,VWS V15.00,2017-06-29 15:48:00,
2017-06-29 08:53:00,62.4,55.8,30.14,SE,129,0.0,2.0,79,0.00,,---,0.00,VWS V15.00,2017-06-29 15:53:00,
2017-06-29 08:58:00,63.1,55.8,30.14,ESE,114,0.0,2.0,77,0.00,,---,0.00,VWS V15.00,2017-06-29 15:58:00,
2017-06-29 09:03:00,63.5,55.4,30.14,ESE,109,0.0,1.0,75,0.00,,---,0.00,VWS V15.00,2017-06-29 16:03:00,
2017-06-29 09:08:00,63.6,55.5,30.14,ESE,108,0.0,1.0,75,0.00,,---,0.00,VWS V15.00,2017-06-29 16:08:00,
2017-06-29 09:13:00,63.4,55.3,30.14,ENE,77,0.0,5.0,75,0.00,,---,0.00,VWS V15.00,2017-06-29 16:13:00,
2017-06-29 09:18:00,63.5,55.4,30.14,ENE,70,0.0,5.0,75,0.00,,---,0.00,VWS V15.00,2017-06-29 16:18:00,
2017-06-29 09:23:00,63.3,55.2,30.14,SSW,198,1.0,5.0,75,0.00,,---,0.00,VWS V15.00,2017-06-29 16:23:00,
2017-06-29 09:28:00,63.7,55.6,30.14,NE,47,3.0,5.0,75,0.00,,---,0.00,VWS V15.00,2017-06-29 16:28:00,
2017-06-29 09:33:00,63.9,55.5,30.14,ENE,57,0.0,1.0,74,0.00,,---,0.00,VWS V15.00,2017-06-29 16:33:00,
2017-06-29 09:38:00,64.1,55.3,30.14,South,186,0.0,5.0,73,0.00,,---,0.00,VWS V15.00,2017-06-29 16:38:00,
2017-06-29 09:43:00,64.1,55.7,30.15,SE,141,2.0,5.0,74,0.00,,---,0.00,VWS V15.00,2017-06-29 16:43:00,
2017-06-29 09:48:00,64.0,55.6,30.15,ESE,109,0.0,5.0,74,0.00,,---,0.00,VWS V15.00,2017-06-29 16:48:00,
2017-06-29 09:53:00,63.8,55.4,30.15,ENE,62,0.0,7.0,74,0.00,,---,0.00,VWS V15.00,2017-06-29 16:53:00,
2017-06-29 09:58:00,63.7,55.3,30.15,East,84,2.0,7.0,74,0.00,,---,0.00,VWS V15.00,2017-06-29 16:58:00,
2017-06-29 10:03:00,63.8,55.4,30.15,SSW,210,0.0,4.0,74,0.00,,---,0.00,VWS V15.00,2017-06-29 17:03:00,
2017-06-29 10:08:00,64.0,55.6,30.15,WSW,252,0.0,4.0,74,0.00,,---,0.00,VWS V15.00,2017-06-29 17:08:00,
2017-06-29 10:13:00,64.5,55.7,30.15,SSE,166,5.0,5.0,73,0.00,,---,0.00,VWS V15.00,2017-06-29 17:13:00,
2017-06-29 10:14:00,64.5,55.7,30.15,SSW,197,0.0,5.0,73,0.00,,---,0.00,VWS V15.00,2017-06-29 17:14:00,
2017-06-29 10:19:00,63.9,55.1,30.15,SSW,210,0.0,5.0,73,0.00,,---,0.00,VWS V15.00,2017-06-29 17:19:00,
2017-06-29 10:24:00,63.6,54.4,30.15,SW,217,0.0,6.0,72,0.00,,---,0.00,VWS V15.00,2017-06-29 17:24:00,
2017-06-29 10:29:00,64.0,54.8,30.15,South,172,0.0,6.0,72,0.00,,---,0.00,VWS V15.00,2017-06-29 17:29:00,
2017-06-29 10:34:00,64.3,55.5,30.15,SSW,196,0.0,1.0,73,0.00,,---,0.00,VWS V15.00,2017-06-29 17:34:00,